Location: East Finchley
(51.5833°N, 0.1667°W)
Time: 19:21:03
(UTC+00:00)

Daily predictions for brighter satellites

Satellite Brightness Start Highest point End
(mag) Time Altitude Azimuth Time Altitude Azimuth Time Altitude Azimuth
HJ-1C 3.8 18:21:54 10° SE 18:25:01 40° ENE 18:28:09 10° N
COSMOS 2428 3.7 18:20:38 10° SSE 18:25:13 26° ESE 18:29:50 10° NE
SL-16 R/B 2.8 18:22:26 10° SW 18:28:03 62° NW 18:33:43 10° NNE
Cosmos 1470 Rocket 3.6 18:26:38 10° S 18:31:06 88° E 18:35:33 10° N
SKYMED 2 3.7 18:26:47 10° NNE 18:31:10 82° WNW 18:35:31 10° SSW
Cosmos 2369 Rocket 4.2 18:29:13 10° N 18:31:28 12° NNE 18:33:43 10° NE
USA 307 3.1 18:27:12 10° WNW 18:31:29 68° N 18:35:45 10° E
USA 306 3.0 18:28:27 10° WNW 18:32:47 69° N 18:37:02 10° E
SL-8 Rocket 4.3 18:28:59 10° SSE 18:34:46 43° E 18:40:32 10° NNE
CENTAUR R/B 3.9 18:31:47 10° SE 18:34:56 15° ESE 18:38:19 10° ENE
ATLAS CENTAUR R/B 1.2 18:32:03 10° SW 18:35:42 79° NW 18:39:26 10° NE
Meteor 2-12 Rocket 4.4 18:31:42 10° S 18:37:47 83° E 18:43:55 10° NNE
Cosmos 1703 Rocket 3.5 18:37:42 10° N 18:42:08 82° E 18:46:29 10° SSE
USA 308 3.0 18:38:02 10° WNW 18:42:19 72° NNE 18:46:15 12° E
Cosmos 1666 2.9 18:39:20 10° SSE 18:42:55 46° E 18:46:32 10° NNE
Cosmos 1844 Rocket 3.8 18:40:30 10° NW 18:45:51 48° WSW 18:51:09 10° S
Cosmos 2322 3.9 18:40:22 10° S 18:45:53 52° ESE 18:51:25 10° NE
CSL-04 Rocket 3.7 18:41:11 10° SSE 18:46:40 69° ENE 18:52:07 10° NNW
Okean-O 2.9 18:45:21 10° S 18:49:46 75° WSW 18:54:14 10° NNW
ASTEX 1 4.3 18:46:20 10° NNE 18:50:27 26° E 18:54:32 10° SE
Cosmos 1777 Rocket 4.1 18:45:15 10° NNW 18:50:32 85° WSW 18:55:45 10° SSE
Cosmos 1933 Rocket 3.6 18:47:08 10° S 18:51:30 86° W 18:55:57 10° N
Cosmos 2366 rocket 4.3 18:46:58 10° SSE 18:52:59 48° E 18:59:04 10° NNE
H-2A R/B 2.7 18:48:29 10° S 18:53:54 66° WSW 18:59:18 10° NNW
CSL-04 Debris 4.2 18:48:49 10° SSE 18:54:16 82° ENE 18:59:47 10° NNW
SJ-6B 3.6 18:53:09 10° SE 18:56:45 32° ENE 19:00:19 10° N
Cosmos 2221 Rocket 4.2 18:53:25 10° N 18:57:31 35° ENE 19:01:36 10° SE
Ariane Rocket 3.7 18:55:53 10° SE 19:00:28 35° ENE 19:05:05 10° N
USA 186 2.0 18:59:36 18° ESE 19:00:57 31° ENE 19:03:22 10° N
Cosmos 1500 4.1 18:58:51 10° SSW 19:02:30 52° WNW 19:06:11 10° N
OBJECT-B 1.9 19:02:10 18° ESE 19:03:39 26° ENE 19:06:24 10° N
Okean 1-7 3.6 19:01:55 10° NNW 19:06:14 62° W 19:10:29 10° S
Meteor 1-11 Rocket 3.8 19:01:18 10° S 19:06:48 55° E 19:12:14 10° NNE
PSLV R/B 4.0 19:02:58 10° NNE 19:07:04 83° WNW 19:11:07 10° SSW
Cosmos 2360 Rocket 2.7 19:04:33 10° SW 19:10:10 63° NW 19:15:51 10° NNE
YAOGAN 1 3.8 19:06:37 10° S 19:10:46 44° W 19:14:57 10° NNW
SAR-Lupe-4 3.5 19:07:52 10° NNE 19:11:29 84° ESE 19:15:04 10° SSW
FALCON 9 DEB 3.6 19:08:41 10° WNW 19:11:46 46° SSW 19:13:45 19° SE
Cosmos 1943 Rocket 3.7 19:08:15 10° NNW 19:12:35 22° NE 19:15:25 15° ENE
Meteor 1-13 Rocket 4.4 19:07:31 10° NNW 19:13:30 85° WSW 19:19:20 10° S
SJ 16-02 1.3 19:10:39 10° NNW 19:15:04 69° ENE 19:19:19 11° SSE
Cosmos 1727 Rocket 4.0 19:09:19 10° N 19:15:29 62° ENE 19:21:38 10° SSE
Cosmos 2341 Rocket 4.1 19:10:17 10° SSW 19:16:35 82° W 19:22:53 10° N
Cosmos 2333 4.2 19:11:06 10° SSW 19:16:47 89° ESE 19:22:34 10° NNE
DMSP B5D2-2 4.2 19:11:50 10° NNE 19:16:55 50° E 19:21:58 10° S
Cosmos 2278 Rocket 2.2 19:11:27 10° NNW 19:17:09 69° ENE 19:22:11 13° SE
Cosmos 2237 Rocket 3.1 19:13:01 10° SSE 19:17:37 26° ESE 19:22:15 10° NE
Cosmos 1544 3.8 19:15:43 10° SSE 19:18:56 30° E 19:22:12 10° NNE
Okean 3 3.5 19:15:12 10° NNW 19:19:30 86° W 19:23:47 10° S
FALCON 9 DEB 4.0 19:16:37 10° W 19:19:36 38° SSW 19:21:22 20° SSE
SL-4 R/B 3.8 19:17:24 10° W 19:20:04 20° SW 19:22:39 10° SSE
Cosmos 1536 2.7 19:17:20 10° S 19:21:16 60° E 19:25:12 10° NNE
MOS 1 4.5 19:15:50 10° SE 19:21:19 53° ENE 19:26:49 10° N
SeaSat 1 2.7 19:19:20 10° NE 19:24:07 46° ESE 19:28:51 10° S
Abrixas rocket 3.9 19:24:24 10° WSW 19:25:58 15° SSW 19:26:46 13° S
SPOT 3 Rocket 4.4 19:24:24 23° ESE 19:26:39 32° ENE 19:31:15 10° N
Cosmos 2218 Rocket 4.0 19:20:51 10° S 19:27:14 82° E 19:33:39 10° NNE
MetOp-A 4.1 19:25:47 10° SSE 19:31:09 85° ENE 19:36:34 10° NNW
Cosmos 864 Rocket 4.4 19:25:00 10° S 19:31:10 82° E 19:37:27 10° NNE
SME Rocket 4.2 19:24:03 10° NNE 19:31:28 50° E 19:36:23 10° S
Resurs 01 Rocket 2.5 19:31:41 27° E 19:32:32 29° ENE 19:36:22 10° N
Gbstr 26 Del rocket 3.5 19:30:46 10° WNW 19:35:22 71° SSW 19:38:18 27° ESE
USA 234 4.0 19:33:09 23° E 19:35:32 29° SE 19:41:03 10° S
Cosmos 1959 Rocket 4.4 19:30:16 10° S 19:36:22 89° W 19:42:34 10° N
Helios 1A Rocket 4.4 19:32:45 10° SSW 19:36:32 38° W 19:40:21 10° NNW
Cosmos 2333 Rocket 2.3 19:32:02 10° SSW 19:37:44 81° WNW 19:43:32 10° NNE
Cosmos 1937 Rocket 3.9 19:32:57 10° NNW 19:37:54 43° ENE 19:39:49 30° ESE
Lacrosse 4 Rocket 1.7 19:34:52 10° SW 19:39:18 74° NW 19:43:50 10° NNE
GP-B 4.4 19:36:05 10° SSW 19:40:18 42° W 19:44:33 10° NNW
ERBS 3.5 19:38:22 10° WNW 19:41:23 31° N 19:42:16 27° NE
USA 238 DEB 3.8 19:37:39 10° SSW 19:43:53 48° ESE 19:50:28 10° NE
USA 238 3.8 19:37:46 10° SSW 19:44:00 48° ESE 19:50:34 10° NE
Cosmos 2322 Rocket 4.1 19:39:33 10° W 19:44:22 28° NW 19:49:13 10° NNE
Cosmos 1842 3.8 19:41:36 10° N 19:45:12 37° ENE 19:45:12 37° ENE
CZ-4 R/B 4.4 19:43:47 10° SW 19:46:20 17° W 19:48:56 10° NW
Cosmos 1689 Rocket 4.4 19:44:09 10° N 19:46:37 25° WNW 19:49:04 10° SW
Cosmos 1869 Rocket 4.2 19:42:36 10° SSW 19:46:55 56° WNW 19:51:18 10° N
Resurs 1-3 3.6 19:45:27 33° SE 19:47:13 59° ENE 19:51:34 10° N
ERS-2 3.7 19:44:18 10° N 19:47:43 38° WNW 19:51:07 10° SW
IRS-1A Rocket 4.2 19:46:16 12° SSE 19:51:26 86° ENE 19:56:59 10° NNW
Cosmos 1378 4.3 19:49:06 10° NNW 19:52:41 44° W 19:56:13 10° SSW
Cosmos 2219 Rocket 2.4 19:48:23 10° SW 19:53:58 71° WNW 19:59:38 10° NNE
CZ-2C R/B 3.2 19:49:33 10° N 19:54:57 60° WNW 20:00:11 10° SSW
CREW DRAGON DEMO-1 DEB 4.2 19:53:39 10° SW 19:55:13 27° SW 19:55:13 27° SW
Cosmos 1238 Rocket 2.7 19:52:47 10° SSW 19:56:43 71° W 20:00:04 10° N
USA 305 3.1 19:53:30 10° WNW 19:57:44 61° SSW 19:58:46 45° SSE
Terra 3.9 20:00:53 13° NE 20:00:53 13° NE 20:02:31 10° NNE
NOSS 5 (C) 4.4 19:56:40 10° SW 20:00:56 75° SE 20:01:05 73° ESE
Cosmos 1980 3.7 19:56:35 10° S 20:02:03 55° ESE 20:07:35 10° NE
ERS-1 Rocket 4.5 20:03:06 21° NE 20:03:06 21° NE 20:06:22 10° N
Cosmos 1733 Rocket 2.9 19:59:42 10° S 20:04:02 79° E 20:08:26 10° NNE
COSMOS 2428 3.0 20:03:24 10° SW 20:09:03 66° WNW 20:14:46 10° NNE
Meteor 2-9 Rocket 4.3 20:10:29 47° E 20:10:29 47° E 20:15:29 10° NNE
USA 307 3.2 20:07:18 10° WNW 20:11:29 54° SSW 20:12:00 50° S
NOSS 3-2 (A) 3.3 20:06:51 10° SW 20:12:33 77° SE 20:19:14 10° NE
USA 306 3.3 20:08:33 10° WNW 20:12:43 51° SSW 20:13:13 48° S
Spot 2 Rocket 4.3 20:14:35 35° ENE 20:14:35 35° ENE 20:18:57 10° N
ATLAS CENTAUR R/B 3.6 20:12:27 10° WNW 20:15:09 19° NNW 20:17:48 11° NNE
Cosmos 1743 3.0 20:12:49 10° SSW 20:16:40 67° W 20:20:35 10° N
Cosmos 2369 Rocket 3.2 20:12:33 10° NNW 20:17:28 30° NE 20:18:00 30° NE
Cosmos 1898 Rocket 3.5 20:12:19 10° NNW 20:17:34 77° WSW 20:19:30 40° S
USA 308 3.4 20:18:09 10° WNW 20:22:16 47° SSW 20:22:24 47° SSW
NOSS 0 Rocket 3.8 20:16:14 10° SSW 20:22:24 86° ESE 20:28:36 10° NNE
CENTAUR R/B 2.4 20:18:03 10° SSW 20:24:00 66° SE 20:31:08 10° NE
ASTEX 1 4.3 20:25:00 10° N 20:29:41 47° WNW 20:34:20 10° SSW
Cosmos 1674 Rocket 4.0 20:27:11 10° NNW 20:31:26 57° W 20:32:24 45° SW
Landsat 7 3.8 20:34:35 70° NE 20:34:35 70° NE 20:39:04 10° N
Cosmos 372 Rocket 3.9 20:30:33 10° NNW 20:35:35 66° NE 20:35:35 66° NE
OBJECT-B 3.0 20:35:13 21° WSW 20:35:53 23° W 20:38:31 10° NW
ARIANE 5 R/B 3.7 20:39:17 37° NNE 20:39:17 37° NNE 20:42:18 10° N
Ariane Rocket 4.1 20:35:45 17° SSW 20:39:22 41° W 20:44:13 10° NNW
ATLAS 5 CENTAUR R/B 3.8 20:36:39 10° WNW 20:40:12 19° NNW 20:40:39 18° N
Okean 2 4.0 20:37:37 10° NNW 20:40:56 54° NNW 20:40:56 54° NNW
Cosmos 1763 Rocket 3.4 20:38:42 10° SSW 20:44:02 89° WNW 20:49:24 10° NNE
Cosmos 2297 3.5 20:38:27 10° NNW 20:44:14 84° ENE 20:44:37 78° ESE
Cosmos 1378 Rocket 4.3 20:41:32 10° NNW 20:45:51 49° W 20:46:26 46° WSW
MetOp-B 4.0 20:45:41 81° SSE 20:45:57 89° ENE 20:51:22 10° NNW
In-Cosmos 22 4.2 20:43:12 10° N 20:48:36 66° NE 20:48:36 66° NE
Cosmos 1975 Rocket 4.3 20:47:11 10° N 20:49:55 36° N 20:49:55 36° N
Cosmos 1125 Rocket 4.5 20:47:55 10° NNW 20:51:54 36° NNE 20:51:54 36° NNE
SJ 16-02 4.0 20:50:22 10° WNW 20:53:07 16° W 20:55:52 10° SW
NOSS 3-2 (C) 3.3 20:48:36 10° SW 20:54:21 85° SE 20:55:56 54° NE
USA 281 4.2 20:54:08 31° NE 20:54:37 31° NE 21:00:15 10° NNW
Cosmos 468 Rocket 4.2 20:50:36 10° SSW 20:55:54 71° WNW 21:01:12 10° NNE
Cosmos 1943 Rocket 2.2 20:51:36 10° NNW 20:56:57 72° NNE 20:56:57 72° NNE
Cosmos 2278 Rocket 4.1 20:56:16 10° NW 21:00:44 24° WSW 21:04:05 15° SSW
Cosmos 2237 Rocket 2.5 20:55:35 10° SW 21:01:15 66° NW 21:06:58 10° NNE
SeaSat 1 3.8 20:57:01 10° NNE 21:01:34 38° NW 21:06:05 10° WSW
Cosmos 1535 Rocket 4.4 21:01:00 59° SSW 21:02:22 87° W 21:08:47 10° N
SPOT 3 Rocket 4.3 21:05:03 43° SW 21:05:54 47° W 21:10:58 10° NNW
Resurs 01 Rocket 2.8 21:09:14 38° W 21:09:14 38° W 21:13:06 10° NNW
USA 245 4.4 21:12:27 76° WSW 21:12:36 76° WSW 21:18:59 10° NNW
SPOT 1/Viking Rocket 4.0 21:14:33 60° NW 21:14:33 60° NW 21:18:54 10° NNW
Cosmos 1934 Rocket 4.2 21:14:32 49° SW 21:16:04 66° WNW 21:22:14 10° N
Lacrosse 4 Rocket 4.1 21:15:31 10° WNW 21:18:47 19° NNW 21:22:03 10° NNE
USA 234 3.4 21:20:31 59° SW 21:20:31 59° SW 21:25:47 10° SW
SPOT 5 4.5 21:24:59 27° N 21:24:59 27° N 21:27:00 10° NNW
Cosmos 2333 Rocket 4.4 21:18:26 10° W 21:22:56 23° NW 21:27:29 10° NNE
USA 238 DEB 4.2 21:28:15 10° WSW 21:34:49 57° NW 21:41:45 10° NE
USA 238 4.2 21:28:22 10° WSW 21:34:55 57° NW 21:41:51 10° NE
Terra 3.6 21:39:46 26° N 21:39:46 26° N 21:41:52 10° NNW
ERS-1 Rocket 4.3 21:43:05 35° NNW 21:43:05 35° NNW 21:46:02 10° NNW
Cosmos 2369 Rocket 3.4 21:56:23 10° NW 21:59:48 38° NW 21:59:48 38° NW
CENTAUR R/B 3.5 22:08:55 10° W 22:15:05 47° NNW 22:22:27 10° NE
USA 281 4.1 22:40:59 43° NW 22:40:59 43° NW 22:45:13 10° NNW
Cosmos 1943 Rocket 4.4 22:36:14 10° NW 22:38:29 18° WNW 22:38:29 18° WNW
SL-16 R/B 4.4 23:11:26 20° N 23:11:26 20° N 23:13:43 10° NNE
